Wind_Speed
21 19 20 20 19 19 19 19 20 18 18 17 18 18 18 18 17 16 15 14 14 13 11 11 11 11 11 11 11 11 11 11 11 12 11 11 11 12 13 13 13 13 13 14
22 21 22 21 21 21 20 20 20 20 19 19 19 19 18 18 17 17 16 15 14 13 12 11 11 12 12 12 12 12 12 12 12 12 11 11 12 12 13 14 14 14 15 15
23 23 23 23 21 21 22 22 21 21 20 19 19 19 19 19 19 18 18 17 15 14 13 13 12 12 13 14 13 13 13 12 12 12 12 12 13 13 14 15 15 15 15 15
25 25 26 23 22 22 23 23 23 23 22 20 20 20 19 19 20 20 19 18 17 15 14 14 14 14 14 14 14 14 14 14 13 13 14 14 14 14 14 15 15 15 15 14
27 27 27 24 23 24 24 24 24 24 23 22 21 21 21 20 19 19 19 18 18 17 16 16 16 15 16 16 16 15 15 15 15 15 15 15 15 15 15 15 15 15 15 14
28 28 27 24 23 25 25 25 24 24 24 24 22 22 21 21 20 20 19 19 19 19 18 17 17 17 17 18 17 16 16 16 16 16 16 16 16 16 17 16 15 15 15 15
29 28 27 25 25 25 26 25 24 24 24 24 24 24 23 23 23 22 22 21 21 21 19 19 19 19 19 18 17 17 17 17 17 16 16 16 16 17 17 17 16 16 15 15
31 29 28 27 26 26 27 27 26 25 25 25 24 24 25 25 25 25 23 23 23 22 21 21 21 21 21 20 19 18 18 18 18 18 18 17 17 17 17 17 17 16 16 15
32 31 29 28 27 27 28 28 27 27 27 26 26 26 26 25 25 25 24 24 24 24 23 23 23 22 22 21 20 19 19 18 18 18 18 18 18 18 17 17 18 17 16 16
32 31 31 30 30 30 29 29 28 28 27 27 27 27 26 25 24 24 25 25 24 23 23 22 22 22 22 21 21 20 20 19 20 19 19 18 18 18 18 18 18 18 17 17
33 32 33 32 31 30 30 29 30 29 28 28 27 26 26 25 24 24 25 25 24 23 22 22 22 22 22 22 21 21 21 20 20 20 20 19 19 18 18 18 18 18 19 18
32 32 32 32 31 31 30 30 29 28 27 28 28 27 27 26 26 25 25 25 25 25 24 24 24 23 23 23 22 22 22 22 21 21 20 19 19 19 19 19 19 19 19 19
32 32 32 31 30 29 29 29 27 26 26 26 26 26 26 26 25 25 25 24 24 25 24 24 24 24 24 24 24 23 24 24 22 21 21 20 20 19 19 19 19 19 20 20
32 32 30 29 29 29 28 27 27 26 25 24 24 25 24 24 24 24 24 24 24 25 25 24 24 24 24 25 25 25 24 23 23 22 22 21 21 21 21 21 21 21 21 21
30 30 29 29 30 30 30 28 28 27 27 25 24 24 23 23 23 24 24 24 25 25 24 24 24 24 24 24 25 25 24 24 24 23 23 23 22 22 23 23 22 22 22 22
26 28 28 28 28 29 28 28 28 28 27 26 24 24 24 24 23 23 24 25 24 24 25 25 24 25 25 25 26 25 24 24 24 24 24 24 24 24 23 23 23 23 23 23
25 25 25 26 27 28 27 27 27 26 26 25 25 25 25 25 24 23 23 23 24 24 24 24 24 25 25 26 26 25 25 25 24 24 24 24 24 24 25 24 23 23 24 24
24 23 23 25 25 25 26 26 27 26 25 24 23 24 24 23 23 23 23 23 24 25 24 24 24 25 25 25 25 24 25 25 25 25 24 24 24 25 25 25 25 25 25 25
22 23 23 24 24 24 24 25 26 25 24 24 24 23 23 23 22 22 23 23 23 23 23 22 23 23 23 23 24 24 24 24 24 24 24 24 24 24 24 25 26 26 25 25
21 22 22 22 23 24 24 24 24 24 24 23 23 22 21 21 21 21 21 21 21 21 20 21 22 23 23 23 23 23 24 25 25 25 24 24 24 24 25 25 25 25 25 25
21 21 21 20 21 22 22 23 23 23 22 22 22 21 20 19 20 20 21 21 21 20 20 20 20 21 21 22 23 23 24 24 25 25 25 25 26 26 25 25 25 25 25 24
20 20 19 19 20 21 22 22 22 22 23 22 21 20 20 19 19 19 20 20 20 19 19 19 19 20 21 22 22 22 23 23 24 25 25 25 25 25 26 26 26 25 25 24
18 19 19 19 20 20 21 21 21 21 21 21 21 21 20 20 20 19 19 19 19 19 19 19 19 19 19 19 20 21 21 22 23 23 24 23 24 24 25 26 26 25 25 24
16 17 18 20 20 20 21 21 21 20 21 21 22 21 21 20 20 20 19 19 20 20 20 19 19 19 19 19 20 20 21 22 22 22 22 22 22 23 23 24 25 25 25 25
16 17 18 19 20 21 21 22 22 21 21 22 21 21 21 20 20 19 20 19 19 19 19 19 19 19 20 20 20 20 20 21 21 21 22 21 21 22 22 23 23 23 23 24
15 15 16 17 18 20 21 21 21 22 23 22 22 22 21 21 21 21 20 20 19 19 19 19 20 20 21 21 21 20 21 21 21 22 22 22 22 21 22 23 23 23 23 24
17 17 16 16 17 18 19 19 20 20 22 22 22 22 21 21 21 21 21 21 20 20 20 20 21 21 21 21 21 21 21 21 21 21 22 22 22 22 22 23 23 23 23 24
Wind_Direction
266 267 267 270 271 270 270 274 277 279 282 285 287 286 284 285 286 289 285 288 289 287 285 280 272 266 264 259 256 256 255 254 254 256 258 260 264 267 270 273 275 276 280 278
266 264 265 266 269 271 273 274 277 278 280 281 283 285 285 285 285 285 284 283 282 284 285 277 270 269 264 257 254 253 254 254 254 256 260 264 266 267 270 273 276 276 281 278
268 265 265 263 267 271 274 275 276 279 280 278 277 281 283 285 283 280 278 278 280 282 277 275 272 269 261 262 258 255 252 252 253 257 264 269 270 271 272 274 276 275 278 276
269 268 266 268 268 271 273 274 275 277 279 278 276 277 278 279 280 280 275 275 277 275 272 272 274 273 268 262 259 257 255 253 255 259 266 270 273 273 272 274 275 276 276 273
267 268 269 268 268 270 273 273 275 277 278 279 276 274 273 275 278 279 275 275 273 271 272 272 272 271 270 269 267 262 258 256 257 260 264 270 272 272 271 272 272 273 272 269
267 268 268 270 269 270 271 272 274 276 276 276 275 271 271 272 274 275 274 272 270 271 272 273 271 268 269 271 270 266 261 259 261 261 263 265 267 268 268 268 267 269 270 268
264 267 267 269 267 267 268 271 272 274 276 276 276 275 273 270 272 271 271 271 270 270 271 271 269 269 269 270 268 265 262 262 263 263 262 264 266 269 267 264 265 267 266 267
263 265 268 269 267 266 268 269 269 271 273 275 276 276 273 271 269 269 269 268 268 268 268 269 267 267 266 263 263 263 262 263 265 265 264 264 265 266 266 263 263 264 264 267
262 264 266 266 266 266 267 267 268 269 270 272 274 276 276 274 270 267 266 266 268 266 264 266 266 266 264 262 261 261 261 262 263 264 265 266 267 267 265 264 263 259 262 264
262 262 264 266 266 264 265 267 268 268 267 270 272 273 274 272 268 268 267 266 265 264 262 263 263 262 261 260 260 258 258 260 263 265 266 268 270 270 267 262 258 258 261 264
263 263 264 264 264 263 264 265 266 266 265 268 271 273 273 271 271 271 268 266 264 263 263 262 263 262 262 260 258 258 258 259 262 264 266 265 264 265 264 262 260 261 262 264
262 263 264 264 263 261 262 263 265 266 267 267 268 269 270 271 271 271 268 265 264 264 262 261 260 261 260 259 259 259 259 260 261 261 260 261 263 263 262 260 260 262 264 266
259 259 261 262 262 261 263 264 264 266 266 265 266 267 267 269 268 267 265 263 262 262 262 261 260 258 257 259 259 259 258 256 256 256 257 259 261 262 261 260 260 263 265 265
260 260 261 263 262 262 264 262 263 264 265 267 267 268 267 266 265 265 261 259 259 261 262 261 258 257 258 259 259 256 255 253 253 254 256 257 258 260 261 262 262 261 263 265
261 261 262 263 263 260 263 263 262 264 267 266 266 266 264 264 264 263 260 259 259 260 260 259 258 257 255 255 256 254 254 255 255 255 256 257 257 260 261 262 262 262 263 264
263 263 261 261 261 260 261 262 262 263 267 269 267 264 261 261 263 263 261 259 258 258 258 257 257 257 255 254 254 255 255 256 256 255 256 256 257 259 260 261 262 262 264 265
266 265 262 259 258 258 259 262 262 263 266 267 266 263 263 263 264 264 262 261 260 258 258 258 258 258 256 256 255 254 254 255 255 256 257 257 258 259 259 260 261 263 264 266
267 266 263 260 257 255 255 255 256 259 260 264 265 263 262 262 262 261 259 259 260 258 258 260 259 258 257 257 255 253 253 253 254 255 255 256 257 259 261 261 262 263 266 267
265 266 265 260 257 256 254 251 251 253 255 259 260 261 260 259 259 259 259 259 259 259 260 261 260 258 257 256 257 254 253 252 252 253 254 256 258 260 262 262 263 264 266 266
267 269 267 260 255 254 253 252 253 254 255 256 258 259 258 258 259 260 260 260 260 260 261 261 260 260 257 256 256 256 254 251 251 251 253 256 259 261 262 263 264 265 265 266
265 268 267 260 254 251 250 251 253 254 255 256 257 259 260 259 260 259 261 261 260 260 260 259 259 259 257 258 259 259 257 255 255 255 256 258 260 261 262 262 263 265 266 265
262 265 266 261 254 250 251 253 253 252 252 254 256 258 259 258 259 262 262 259 259 260 260 259 259 260 260 259 259 257 256 256 258 259 259 259 260 260 260 261 261 263 264 264
266 265 263 260 255 252 252 253 253 253 254 255 256 257 258 259 261 263 263 261 260 259 260 259 259 260 260 259 258 258 258 259 260 262 261 261 261 262 261 261 261 261 262 263
267 267 264 259 255 253 251 251 252 253 255 258 259 260 260 260 260 260 259 262 263 262 261 259 259 259 259 259 261 262 261 261 262 263 263 263 263 263 262 261 261 262 263 264
276 273 268 261 253 250 248 249 251 254 257 259 261 262 261 258 258 259 259 259 261 263 262 259 259 261 262 262 263 264 262 262 262 262 265 266 266 266 265 266 265 264 266 268
281 276 272 265 258 256 253 252 253 255 255 257 259 260 261 261 261 260 259 259 261 260 258 258 259 259 260 262 263 264 263 261 262 263 264 264 264 266 268 268 267 267 269 271
280 279 276 272 264 259 256 254 254 255 254 255 256 257 260 262 263 262 261 261 261 260 260 260 260 259 258 259 263 265 264 262 264 266 266 265 266 267 269 269 268 267 269 271
Height
5809 5809 5808 5808 5808 5808 5807 5806 5805 5805 5804 5804 5803 5801 5800 5798 5798 5796 5795 5795 5795 5794 5793 5793 5793 5793 5793 5793 5794 5794 5795 5795 5796 5796 5796 5797 5797 5797 5797 5796 5796 5795 5795 5794
5803 5803 5802 5802 5802 5801 5801 5801 5800 5799 5799 5798 5797 5796 5794 5794 5793 5791 5791 5790 5790 5791 5790 5790 5790 5790 5790 5790 5790 5790 5791 5791 5792 5792 5792 5793 5793 5793 5792 5792 5791 5791 5790 5789
5796 5796 5795 5795 5795 5795 5795 5794 5794 5793 5794 5792 5792 5791 5790 5789 5788 5787 5786 5786 5785 5786 5786 5786 5786 5786 5786 5786 5786 5786 5787 5787 5788 5788 5789 5789 5788 5788 5788 5788 5787 5786 5785 5785
5788 5789 5788 5791 5790 5789 5788 5788 5787 5786 5786 5786 5785 5785 5784 5783 5782 5782 5781 5781 5781 5781 5781 5781 5781 5781 5781 5781 5782 5782 5782 5783 5783 5784 5784 5784 5784 5784 5784 5783 5782 5782 5781 5780
5780 5780 5780 5783 5783 5782 5781 5780 5781 5780 5779 5778 5778 5778 5777 5777 5777 5776 5776 5776 5776 5776 5776 5776 5776 5776 5776 5776 5777 5777 5778 5778 5779 5779 5780 5780 5779 5779 5779 5778 5778 5777 5777 5776
5772 5772 5773 5777 5776 5775 5775 5774 5774 5773 5772 5771 5771 5771 5771 5771 5770 5770 5770 5770 5770 5770 5770 5770 5770 5770 5771 5771 5771 5772 5772 5773 5774 5774 5774 5775 5774 5774 5774 5773 5773 5772 5772 5771
5764 5763 5764 5767 5767 5767 5767 5767 5767 5765 5765 5764 5764 5764 5765 5764 5763 5763 5763 5764 5764 5764 5763 5763 5764 5764 5764 5765 5765 5766 5766 5767 5768 5769 5769 5769 5769 5769 5768 5768 5768 5767 5767 5767
5756 5756 5758 5758 5758 5759 5758 5757 5757 5757 5757 5757 5756 5756 5756 5756 5756 5756 5756 5757 5757 5757 5757 5757 5757 5757 5757 5758 5759 5760 5760 5762 5763 5763 5763 5763 5763 5763 5763 5762 5762 5762 5762 5762
5748 5749 5749 5748 5749 5749 5748 5748 5749 5749 5749 5749 5749 5748 5748 5748 5748 5748 5749 5749 5749 5749 5750 5750 5750 5750 5750 5752 5752 5753 5754 5756 5757 5757 5758 5757 5757 5757 5757 5756 5756 5756 5757 5757
5737 5738 5739 5739 5739 5739 5739 5740 5740 5740 5740 5740 5740 5740 5740 5740 5740 5740 5741 5741 5741 5741 5742 5742 5743 5743 5744 5744 5746 5747 5748 5750 5751 5751 5751 5751 5751 5751 5751 5751 5751 5751 5751 5751
5727 5729 5729 5729 5730 5730 5730 5731 5731 5731 5731 5731 5731 5731 5731 5731 5732 5733 5733 5734 5734 5735 5735 5735 5736 5736 5737 5738 5740 5741 5742 5743 5744 5745 5745 5746 5746 5746 5745 5745 5745 5745 5745 5745
5718 5720 5719 5720 5720 5721 5721 5722 5722 5722 5722 5722 5722 5722 5722 5723 5724 5725 5725 5726 5727 5727 5728 5728 5729 5730 5731 5732 5733 5734 5735 5736 5737 5738 5739 5739 5739 5740 5739 5740 5740 5739 5739 5739
5708 5709 5709 5710 5710 5711 5712 5713 5713 5714 5714 5714 5714 5714 5714 5715 5715 5716 5717 5718 5719 5720 5720 5721 5722 5723 5724 5725 5726 5727 5728 5729 5730 5731 5732 5732 5733 5733 5733 5734 5734 5734 5734 5734
5697 5698 5698 5700 5701 5701 5702 5703 5705 5706 5705 5706 5705 5706 5706 5706 5707 5708 5709 5710 5711 5712 5713 5713 5714 5715 5717 5718 5719 5720 5721 5722 5723 5724 5724 5725 5726 5726 5727 5727 5727 5727 5727 5727
5688 5688 5689 5690 5691 5692 5692 5693 5696 5697 5697 5697 5697 5697 5698 5698 5699 5700 5701 5702 5703 5704 5705 5706 5707 5708 5709 5710 5711 5712 5713 5715 5716 5716 5717 5718 5719 5719 5720 5720 5720 5720 5721 5721
5679 5679 5680 5681 5682 5683 5684 5685 5687 5689 5689 5690 5690 5690 5690 5691 5691 5692 5692 5693 5694 5696 5697 5698 5699 5700 5701 5702 5703 5704 5706 5707 5708 5709 5710 5710 5711 5712 5713 5713 5713 5713 5713 5713
5671 5671 5671 5672 5673 5674 5675 5677 5679 5680 5681 5681 5682 5682 5683 5683 5684 5684 5685 5685 5686 5687 5689 5690 5691 5691 5692 5694 5695 5696 5698 5699 5700 5701 5702 5703 5704 5705 5705 5705 5706 5706 5706 5705
5663 5663 5663 5663 5664 5665 5667 5668 5670 5671 5672 5673 5674 5674 5675 5676 5676 5677 5677 5678 5679 5680 5681 5682 5682 5683 5684 5685 5686 5688 5689 5691 5692 5694 5695 5695 5696 5697 5697 5698 5698 5698 5697 5697
5655 5655 5655 5655 5656 5657 5658 5660 5662 5663 5664 5666 5666 5667 5667 5668 5669 5670 5670 5670 5671 5672 5673 5674 5675 5676 5677 5678 5679 5680 5681 5683 5684 5685 5686 5688 5688 5689 5689 5689 5689 5689 5689 5689
5647 5648 5648 5647 5648 5650 5651 5653 5654 5656 5657 5658 5659 5659 5660 5661 5662 5662 5663 5663 5664 5665 5666 5667 5668 5668 5669 5670 5671 5672 5673 5675 5676 5677 5678 5679 5680 5680 5681 5681 5681 5681 5680 5680
5640 5640 5640 5640 5641 5642 5644 5645 5647 5648 5649 5650 5651 5652 5653 5654 5654 5655 5656 5657 5657 5658 5659 5660 5660 5661 5662 5662 5663 5664 5665 5666 5667 5668 5669 5670 5671 5671 5672 5672 5673 5672 5672 5672
5633 5633 5633 5633 5634 5636 5637 5638 5640 5641 5642 5643 5644 5646 5647 5648 5648 5648 5649 5650 5650 5651 5652 5653 5653 5654 5654 5655 5655 5656 5657 5658 5659 5660 5661 5661 5662 5663 5663 5663 5664 5664 5664 5664
5626 5626 5626 5626 5627 5629 5630 5631 5633 5634 5635 5636 5638 5639 5640 5641 5642 5643 5643 5644 5644 5645 5646 5646 5647 5647 5647 5648 5649 5649 5650 5651 5651 5652 5652 5653 5653 5654 5654 5654 5654 5655 5655 5655
5620 5620 5619 5620 5621 5623 5624 5625 5626 5627 5628 5629 5631 5632 5633 5634 5635 5635 5636 5637 5638 5638 5639 5639 5640 5641 5641 5642 5642 5643 5643 5643 5644 5644 5644 5645 5645 5645 5645 5645 5646 5646 5646 5646
5614 5614 5613 5614 5615 5616 5617 5618 5619 5620 5621 5622 5624 5625 5625 5626 5628 5629 5629 5630 5631 5632 5632 5633 5634 5634 5635 5635 5636 5636 5636 5636 5636 5636 5637 5637 5637 5637 5637 5637 5637 5637 5637 5637
5609 5608 5607 5607 5608 5609 5610 5611 5612 5613 5614 5615 5617 5618 5618 5619 5620 5621 5622 5623 5624 5625 5626 5626 5627 5628 5628 5628 5629 5629 5629 5629 5629 5629 5629 5629 5629 5629 5629 5629 5629 5629 5629 5629
5603 5603 5602 5602 5602 5602 5603 5604 5605 5606 5607 5608 5609 5610 5612 5613 5613 5614 5615 5616 5617 5618 5619 5619 5620 5620 5621 5621 5621 5621 5621 5621 5621 5622 5622 5622 5622 5622 5622 5621 5621 5621 5621 5620